Clearfield, PA

5:15 AM EST on November 22, 2017 (GMT -0500)
Clearfield-Lawrence

Weather History for KFIG - January, 2013

Change the Weather History Date:

Saturday, January 26, 2013

  Actual Average (KDUJ) Record (KDUJ)
Temperature  
Mean Temperature 18 °F -  
Max Temperature 24 °F 31 °F 55 °F (1973)
Min Temperature 12 °F 15 °F -3 °F (2007)
Degree Days  
Heating Degree Days 47    
Moisture  
Dew Point 13 °F    
Average Humidity 78    
Maximum Humidity 92    
Minimum Humidity 65    
Precipitation  
Precipitation 0.00 in - - ()
Sea Level Pressure  
Sea Level Pressure 30.23 in    
Wind  
Wind Speed 4 mph (WNW)    
Max Wind Speed 8 mph    
Max Gust Speed -    
Visibility 8 miles    
Events Snow    
Averages and records for this station are not official NWS values.
T = Trace of Precipitation, MM = Missing Value Source: NWS Daily Summary

Daily Weather History Graph

Daily Weather History Graph

Search for Another Location

Airport or City:

Trip Planner

Search our weather history database for the weather conditions in past years. The results will help you decide how hot, cold, wet, or windy it might be!

Date:

Astronomy

Jan. 26, 2013 Rise Set
Actual Time 7:29 AM EST 5:23 PM EST
Civil Twilight 6:59 AM EST 5:53 PM EST
Nautical Twilight 6:26 AM EST 6:26 PM EST
Astronomical Twilight 5:54 AM EST 6:58 PM EST
Moon 5:16 PM EST (1/26) 6:46 AM EST (1/26)
Length of Visible Light 10h 53m
Length of Day
9h 53m
Full, 100% of the Moon is Illuminated
Jan 26
Full
Jan 26
Full
Feb 3
Last Quarter
Feb 10
New
Feb 17
First Quarter

Hourly Weather History & Observations

Time (EST) Temp. Windchill Dew Point Humidity Pressure Visibility Wind Dir Wind Speed Gust Speed Precip Events Conditions
12:54 AM 12.0 °F - 10.0 °F 92% 30.09 in 3.0 mi Calm Calm - 0.00 in Snow Light Snow
1:54 AM 15.1 °F 6.4 °F 10.0 °F 80% 30.09 in 6.0 mi WSW 5.8 mph - 0.00 in Snow Light Snow
2:54 AM 15.1 °F 9.4 °F 10.0 °F 80% 30.09 in 5.0 mi West 3.5 mph - 0.00 in Snow Light Snow
3:54 AM 15.1 °F - 10.0 °F 80% 30.10 in 8.0 mi Calm Calm - 0.00 in   Overcast
4:54 AM 15.1 °F 7.7 °F 10.0 °F 80% 30.12 in 8.0 mi West 4.6 mph - 0.00 in Snow Light Snow
5:54 AM 15.1 °F 6.4 °F 10.9 °F 84% 30.14 in 7.0 mi West 5.8 mph - 0.00 in   Overcast
6:54 AM 16.0 °F 7.4 °F 10.9 °F 81% 30.15 in 10.0 mi WNW 5.8 mph - N/A   Overcast
7:54 AM 16.0 °F 8.8 °F 10.9 °F 81% 30.18 in 10.0 mi WNW 4.6 mph - N/A   Overcast
8:54 AM 16.0 °F 10.4 °F 12.0 °F 84% 30.19 in 4.0 mi NW 3.5 mph - 0.00 in Snow Light Snow
9:54 AM 18.0 °F 8.7 °F 12.0 °F 78% 30.24 in 6.0 mi NW 6.9 mph - 0.00 in   Haze
10:47 AM 19.4 °F 14.3 °F 12.2 °F 74% 30.13 in 6.0 mi Variable 3.5 mph - 0.00 in   Haze
10:54 AM 19.9 °F 13.4 °F 12.9 °F 74% 30.22 in 9.0 mi WSW 4.6 mph - 0.00 in   Overcast
11:54 AM 21.0 °F 16.2 °F 12.0 °F 68% 30.22 in 10.0 mi Variable 3.5 mph - N/A   Overcast
12:54 PM 23.0 °F 13.9 °F 12.9 °F 65% 30.22 in 10.0 mi West 8.1 mph - 0.00 in   Overcast
1:54 PM 24.1 °F 16.0 °F 14.0 °F 65% 30.22 in 9.0 mi WNW 6.9 mph - 0.00 in   Overcast
2:54 PM 24.1 °F 15.2 °F 15.1 °F 69% 30.23 in 10.0 mi WNW 8.1 mph - 0.00 in   Overcast
3:54 PM 24.1 °F 15.2 °F 15.1 °F 69% 30.26 in 10.0 mi West 8.1 mph - N/A   Overcast
4:54 PM 24.1 °F 17.0 °F 16.0 °F 71% 30.28 in 9.0 mi West 5.8 mph - 0.00 in   Overcast
5:38 PM 23.0 °F 17.0 °F 17.6 °F 80% 30.21 in 2.0 mi WSW 4.6 mph - 0.00 in Snow Light Snow
5:54 PM 21.9 °F 17.2 °F 18.0 °F 85% 30.30 in 4.0 mi West 3.5 mph - 0.00 in Snow Light Snow
6:54 PM 21.9 °F 15.7 °F 17.1 °F 82% 30.32 in 10.0 mi WNW 4.6 mph - 0.00 in   Overcast
7:54 PM 21.9 °F 14.5 °F 16.0 °F 78% 30.35 in 10.0 mi NW 5.8 mph - N/A   Overcast
8:54 PM 21.0 °F 14.6 °F 15.1 °F 78% 30.37 in 10.0 mi WNW 4.6 mph - N/A   Overcast
9:54 PM 19.0 °F 10.0 °F 12.9 °F 77% 30.39 in 10.0 mi WNW 6.9 mph - N/A   Clear
10:54 PM 18.0 °F 8.7 °F 12.9 °F 81% 30.41 in 10.0 mi NW 6.9 mph - N/A   Partly Cloudy
11:07 PM 17.6 °F 8.2 °F 12.2 °F 79% 30.34 in 10.0 mi NNW 6.9 mph - N/A   Mostly Cloudy
11:54 PM 18.0 °F 8.7 °F 12.0 °F 78% 30.43 in 10.0 mi NNW 6.9 mph - N/A   Scattered Clouds